MONITOR-2 (RS39S)

Last updated on Mon Sep 21 2026 00:03:14 GMT+0000 (Coordinated Universal Time)

1 57184U 23091U 26263.61494988 .00002770 00000+0 13303-3 0 9996 2 57184 97.4972 321.2761 0012110 135.0309 225.1909 15.19636918178444
UTC large
Height (km)
Speed (km/s)
/
Latitude / Longitude
Inclination (degrees)
Orbital Period (minutes)
Azimuth
Elevation
Range (km)
Doppler Factor

Next 0 passes for location: London (51.5072 / 0.1276)

No passes found over London.
MONITOR-2 (RS39S)